Погода в Незнанове

Россия / Рязанская область     54°01′33″N   40°06′11″E
темп.,
°C
ветер,
м/с
пор.,
м/с
влажн.,
%
обл.,
%
осадки,
мм/ч
давл.,
гПа
погр.,
м
14 июня, пн
пн1400:00+15ююв22895 0.0 101120
03:00+14ю22890 0.0 101211
06:00+17ююз238983 0.0 1013115
09:00+21ю2276100 0.0 1014483
12:00+24юз22665 0.1 10151183
15:00+25зюз12628 0.5 10141289
18:00+23з22785 2.4 1014260
21:00+19ссз118316 2.7 101411
15 июня, вт
вт1500:00+17ссв118611 0.3 101411
03:00+16с11895 0.4 101411
06:00+18ссв11875 0.0 101458
09:00+22всв227967 1.3 1014222
12:00+25вюв116058 2.3 10131086
15:00+25юв115884 2.3 10111451
18:00+25св01695 0.7 10101226
21:00+20ю008055 0.9 101011
16 июня, ср
ср1600:00+18юв118785 0.0 100911
03:00+17з229110 1.1 100915
06:00+19зсз239049 0.0 100995
09:00+22сз347962 0.1 1010570
12:00+24сз456951 3.9 10101125
15:00+23ссз68807 7.1 1011991
18:00+22ссз48770 0.7 1013656
21:00+17с49900 1.0 1016176
17 июня, чт
чт1700:00+14с4108818 0.0 1018181
03:00+11с36835 0.0 102088
06:00+13с36825 0.0 1022166
09:00+18с46675 0.0 1023484
12:00+21ссв56520 0.0 10231463
15:00+22ссз46510 0.0 10241860
18:00+21с35690 0.0 1024337
21:00+16всв12812 0.0 102511
18 июня, пт
пт1800:00+14ссв11785 0.0 102611
03:00+13ссв228349 0.0 102714
06:00+15ссв23845 0.0 1028109
09:00+19св23660 0.0 1028494
12:00+22всв23520 0.0 10281169
15:00+23всв12520 0.0 10281320
18:00+23с11605 0.0 10281027
21:00+17юз11735 0.0 102811